Change the Weather History Date:

Saturday, September 21, 2013

  Actual Average Record
Temperature  
Mean Temperature 80 °F -  
Max Temperature 89 °F 91 °F 95 °F (1992)
Min Temperature 72 °F 71 °F 64 °F (2006)
Cooling Degree Days 15    
Growing Degree Days 30 (Base 50)    
Moisture  
Dew Point 68 °F    
Average Humidity 70    
Maximum Humidity 93    
Minimum Humidity 46    
Precipitation  
Precipitation 0.00 in - - ()
Sea Level Pressure  
Sea Level Pressure 29.87 in    
Wind  
Wind Speed 3 mph (SSW)    
Max Wind Speed 7 mph    
Max Gust Speed -    
Visibility 10 miles    
Events      
Averages and records for this station are not official NWS values.
T = Trace of Precipitation, MM = Missing Value Source: NWS Daily Summary

Daily Weather History Graph

Daily Weather History Graph

Search for Another Location

Airport or City:

Trip Planner

Search our weather history database for the weather conditions in past years. The results will help you decide how hot, cold, wet, or windy it might be!

Date:

Astronomy

Sep. 21, 2013 Rise Set
Actual Time 7:15 AM EDT 7:24 PM EDT
Civil Twilight 6:51 AM EDT 7:47 PM EDT
Nautical Twilight 6:24 AM EDT 8:15 PM EDT
Astronomical Twilight 5:56 AM EDT 8:42 PM EDT
Moon 8:51 PM EDT (9/21) 9:17 AM EDT (9/21)
Length of Visible Light 12h 56m
Length of Day
12h 09m
Waning Gibbous, 94% of the Moon is Illuminated
Sep 21
Waning Gibbous
Sep 26
Last Quarter
Oct 4
New
Oct 11
First Quarter
Oct 18
Full

Hourly Weather History & Observations

Time (EDT) Temp. Heat Index Dew Point Humidity Pressure Visibility Wind Dir Wind Speed Gust Speed Precip Events Conditions
12:53 AM 75.0 °F - 70.0 °F 84% 29.96 in 10.0 mi ESE 4.6 mph - N/A   Clear
1:53 AM 73.9 °F - 70.0 °F 87% 29.95 in 10.0 mi ESE 4.6 mph - N/A   Clear
2:53 AM 73.0 °F - 70.0 °F 90% 29.93 in 10.0 mi Calm Calm - N/A   Clear
3:53 AM 73.0 °F - 70.0 °F 90% 29.91 in 10.0 mi East 3.5 mph - N/A   Clear
4:53 AM 73.0 °F - 70.0 °F 90% 29.89 in 10.0 mi Calm Calm - N/A   Clear
5:53 AM 72.0 °F - 70.0 °F 93% 29.89 in 10.0 mi Calm Calm - N/A   Clear
6:53 AM 72.0 °F - 70.0 °F 93% 29.91 in 10.0 mi Calm Calm - N/A   Clear
7:53 AM 73.0 °F - 70.0 °F 90% 29.91 in 10.0 mi Calm Calm - N/A   Clear
8:53 AM 75.9 °F - 72.0 °F 87% 29.93 in 10.0 mi Calm Calm - N/A   Clear
9:53 AM 80.1 °F 82.7 °F 68.0 °F 67% 29.92 in 10.0 mi South 5.8 mph - N/A   Clear
10:53 AM 82.0 °F 84.5 °F 66.9 °F 60% 29.91 in 10.0 mi SE 6.9 mph - N/A   Clear
11:53 AM 82.9 °F 85.4 °F 66.9 °F 58% 29.90 in 10.0 mi Calm Calm - N/A   Clear
12:53 PM 86.0 °F 87.6 °F 64.9 °F 49% 29.89 in 10.0 mi Calm Calm - N/A   Clear
1:53 PM 86.0 °F 88.2 °F 66.0 °F 51% 29.88 in 10.0 mi Variable 4.6 mph - N/A   Clear
2:53 PM 88.0 °F 89.6 °F 64.9 °F 46% 29.84 in 10.0 mi SW 5.8 mph - N/A   Partly Cloudy
3:53 PM 87.1 °F 89.2 °F 66.0 °F 49% 29.81 in 10.0 mi South 6.9 mph - N/A   Scattered Clouds
4:53 PM 88.0 °F 90.3 °F 66.0 °F 48% 29.80 in 10.0 mi WSW 5.8 mph - N/A   Scattered Clouds
5:53 PM 86.0 °F 87.3 °F 64.0 °F 48% 29.80 in 10.0 mi SSW 6.9 mph - N/A   Clear
6:53 PM 82.9 °F 84.6 °F 64.9 °F 54% 29.80 in 10.0 mi SW 5.8 mph - N/A   Clear
7:53 PM 82.9 °F 84.6 °F 64.9 °F 54% 29.80 in 10.0 mi Calm Calm - N/A   Clear
8:53 PM 80.1 °F 82.7 °F 68.0 °F 67% 29.81 in 10.0 mi WSW 5.8 mph - N/A   Clear
9:53 PM 79.0 °F - 70.0 °F 74% 29.83 in 10.0 mi WSW 4.6 mph - N/A   Clear
10:53 PM 78.1 °F - 71.1 °F 79% 29.83 in 10.0 mi WSW 4.6 mph - N/A   Clear
11:53 PM 78.1 °F - 71.1 °F 79% 29.83 in 10.0 mi South 3.5 mph - N/A   Clear